#timestamp,LO_Frequency,Hit 
1501675215.4,286047005.1,N
1501675235.2,286047003.8,N
1501675255.1,286047001.2,N
1501675256.0,286047001.2,N
1501675275.8,286046995.0,N
1501675295.6,286046990.2,N
1501675315.5,286046988.0,N
1501675335.3,286046983.4,N
1501675355.1,286046981.8,N
1501675375.9,286046977.9,N
1501675395.7,286046978.6,N
1501675415.5,286046976.3,N
1501675435.4,286046976.6,N
1501675455.2,286046978.0,N
1501675475.0,286046983.5,N
1501675475.9,286046983.5,N
1501675495.7,286046980.5,N
1501675515.6,286046982.7,N
1501675535.4,286046984.2,N
1501675555.2,286046991.6,N
1501675575.1,286046992.4,N
1501675576.0,286046992.4,N
1501675595.8,286046992.9,N
1501675615.6,286046993.5,N
1501675635.5,286046993.0,N
1501675655.3,286046991.0,N
1501675675.1,286046992.7,N
1501675695.9,286046989.4,N
1501675715.7,286046989.3,N
1501675735.5,286046987.4,N
1501675755.3,286046986.1,N
1501675775.2,286046981.7,N
1501675795.0,286046978.3,P
1501675795.9,286046978.3,P
1501675815.8,286046985.8,P
1501675835.6,286046986.7,P
1501675855.4,286046998.6,N
1501675875.3,286047000.0,N
1501675895.1,286047003.7,N
1501675896.0,286047003.7,N
1501675915.8,286047003.7,N
1501675935.7,286047001.3,N
1501675955.5,286047003.2,N
1501675975.3,286047006.6,N
1501675995.1,286047009.1,N
1501676015.9,286047008.3,N
1501676035.7,286047007.0,N
1501676055.5,286047005.8,N
1501676075.4,286046999.8,N
1501676095.2,286047002.4,N
1501676115.0,286046996.6,N
1501676115.9,286046996.6,N
1501676135.8,286046995.9,N
1501676155.6,286046991.7,N
1501676175.4,286046991.0,N
1501676195.3,286046990.6,N
1501676215.1,286046995.7,N
1501676216.0,286046995.7,N
1501676235.8,286046996.5,N
1501676255.6,286047003.6,N
1501676275.5,286047007.8,N
1501676295.3,286047012.6,N
1501676315.1,286047014.6,N
1501676335.9,286047018.2,N
1501676355.7,286047023.6,N
1501676375.5,286047024.5,N
1501676395.4,286047026.6,P
1501676415.2,286047023.7,N
1501676435.0,286047024.7,N
1501676435.9,286047024.7,N
1501676455.8,286047026.2,P
1501676475.6,286047006.9,N
1501676495.4,286047005.0,N
1501676515.3,286047005.6,N
1501676535.1,286047005.7,N
1501676555.8,286047002.9,N
1501676575.7,286047004.0,N
1501676595.5,286047002.5,N
1501676615.3,286047002.3,N
1501676635.2,286046994.9,N
1501676655.9,286046990.5,N
1501676675.7,286046991.5,N
1501676695.5,286046984.5,N
1501676715.4,286046983.6,N
1501676735.2,286046980.7,N
1501676755.0,286046978.9,N
1501676755.9,286046978.9,N
1501676775.8,286046977.8,N
1501676795.6,286046976.5,N
1501676815.4,286046973.0,N
1501676835.3,286046973.4,N
1501676855.1,286046972.0,N
1501676856.0,286046972.0,N
1501676875.8,286046970.5,N
1501676895.7,286046969.6,N
1501676915.5,286046967.7,N
1501676935.3,286046969.3,N
1501676955.1,286046970.6,N
1501676975.9,286046972.0,N
1501676995.7,286046980.2,N
1501677015.5,286046981.8,N
1501677035.4,286046983.1,N
1501677055.2,286046983.0,N
1501677075.0,286046983.9,N
1501677075.9,286046983.9,N
1501677095.8,286046989.6,N
1501677115.6,286046992.0,N
1501677135.4,286046989.2,N
1501677155.3,286046991.4,N
1501677175.1,286046985.7,N
1501677176.0,286046985.7,N
1501677195.8,286046984.4,N
1501677215.7,286046980.8,N
1501677235.5,286046984.7,N
1501677255.3,286046988.3,N
1501677275.1,286046991.4,N
1501677295.9,286046989.2,N
1501677315.7,286046987.7,N
1501677335.5,286046989.7,N
1501677355.4,286046994.7,N
1501677375.2,286046988.5,N
1501677395.0,286046988.2,N
1501677395.9,286046988.2,N
1501677415.8,286046982.9,N
1501677435.6,286046981.2,N
1501677455.4,286046978.8,P
1501677475.3,286046990.4,P
1501677495.1,286046989.5,N
1501677515.8,286046993.0,N
1501677535.7,286046997.5,N
1501677555.5,286047000.9,N
1501677575.3,286047005.5,N
1501677595.2,286047003.5,N
1501677615.9,286047001.9,N
1501677635.7,286047007.4,N
1501677655.5,286047003.1,N
1501677675.4,286047004.4,N
1501677695.2,286047004.9,N
1501677715.0,286047003.7,N
1501677715.9,286047003.7,N
1501677735.8,286047005.8,N
1501677755.6,286047008.7,N
1501677775.4,286047007.8,N
1501677795.3,286047009.8,N
1501677815.1,286047012.1,N
1501677816.0,286047012.1,N
1501677835.8,286047012.8,N
1501677855.7,286047015.6,N
1501677875.5,286047015.8,N
1501677895.3,286047019.9,N
1501677915.1,286047019.1,N
1501677935.9,286047019.4,N
1501677955.7,286047020.4,N
1501677975.5,286047025.0,N
1501677995.4,286047021.0,N
1501678015.2,286047027.4,N
1501678035.0,286047028.7,P
1501678035.9,286047028.7,N
1501678055.8,286047023.4,N
1501678075.6,286047027.8,P
1501678095.5,286047003.9,N
1501678115.3,286047000.6,N
1501678135.1,286046997.1,N
1501678155.8,286046993.4,N
1501678175.7,286046992.9,N
1501678195.5,286046991.7,N
1501678215.3,286046992.3,N
1501678235.2,286046994.6,N
1501678255.9,286046993.0,N
1501678275.7,286046995.7,N
1501678295.6,286046999.1,N
1501678315.4,286046996.9,N
1501678335.2,286047000.8,N
1501678355.0,286047001.0,N
1501678356.0,286047001.0,N
1501678375.8,286047001.2,N
1501678395.6,286046998.2,N
1501678415.4,286047002.6,N
1501678435.3,286047005.3,N
1501678455.1,286047005.2,N
1501678475.8,286047004.8,N
1501678495.7,286047008.0,N
1501678515.5,286047012.3,N
1501678535.3,286047008.2,N
1501678555.2,286047010.7,N
1501678575.9,286047010.1,N
1501678595.7,286047006.7,N
1501678615.6,286047007.0,N
1501678635.4,286047008.4,N
1501678655.2,286047009.9,N
1501678675.0,286047008.5,N
1501678675.9,286047008.5,N
1501678695.8,286047007.9,N
1501678715.6,286047003.4,N
1501678735.4,286047001.2,N
1501678755.3,286047003.3,N
1501678775.1,286047004.2,N
1501678795.8,286047007.1,N
